Temp
69 73 69 69 58 53 47 53 56 58 59 63 66 66 60 59 59 50 70 74 75 74 75 75 75 76 76 76 76 76 76 77 77 77 77 77 77 77 77 76 76 76 76 75 75 74 74 74 73
68 77 69 61 52 45 47 52 57 58 64 68 67 64 62 57 66 67 66 75 76 75 76 75 74 76 76 75 75 76 76 77 77 77 77 76 77 76 76 76 75 75 75 74 74 74 73 73 73
72 75 63 56 50 46 49 53 59 62 65 64 64 65 60 59 65 66 70 75 76 76 76 76 74 76 76 75 75 76 76 76 77 77 77 76 76 76 75 75 74 74 74 73 73 73 72 72 72
71 67 63 54 50 56 57 57 62 63 65 69 62 57 61 65 66 69 73 76 75 75 78 73 75 76 76 76 75 75 76 76 76 77 77 76 76 75 75 74 73 73 73 73 72 72 71 71 71
67 61 53 49 52 57 57 63 63 61 60 63 63 57 57 65 69 70 70 73 72 71 74 74 74 76 76 76 75 75 75 76 76 76 76 76 75 75 74 74 73 73 72 72 72 71 71 70 70
62 60 50 46 50 59 59 63 64 61 62 62 60 57 55 61 67 66 68 67 70 71 72 73 69 68 70 74 75 75 75 75 75 75 75 75 75 75 74 74 73 73 72 72 71 70 70 70 70
58 53 48 47 51 54 61 63 59 62 58 60 64 54 54 58 62 66 65 65 66 68 70 71 71 69 66 67 70 73 74 74 74 74 74 73 73 73 73 72 73 73 73 72 71 70 70 70 70
59 56 49 48 53 53 62 63 64 64 58 64 62 54 51 57 64 65 63 63 63 64 64 66 70 72 70 70 65 70 71 71 72 70 70 68 69 70 69 69 71 72 72 71 70 69 69 69 69
60 51 48 52 54 56 62 60 63 63 63 60 59 56 58 63 65 62 59 59 59 62 61 62 62 64 70 70 66 65 68 69 68 68 66 64 67 69 69 67 69 71 70 70 69 68 67 66 65
55 48 51 57 57 57 63 61 63 60 58 54 54 58 60 60 59 57 55 54 55 55 57 58 59 61 64 70 69 71 69 68 69 69 67 68 68 68 68 64 65 67 67 68 69 67 65 62 58
55 51 57 59 60 62 63 60 61 61 54 57 57 57 58 57 56 55 54 53 53 52 55 56 56 58 61 63 69 68 66 66 67 68 68 67 66 64 62 61 61 64 62 62 63 60 61 59 58
52 59 60 61 61 61 58 61 58 58 55 57 58 58 56 55 54 53 53 53 52 53 52 54 55 56 58 61 66 65 64 63 63 64 66 66 64 63 62 63 64 63 63 62 59 58 60 59 60
54 57 61 61 59 58 61 57 57 54 54 58 59 58 54 53 53 53 53 53 53 50 50 52 55 55 58 63 63 62 61 60 60 61 62 63 61 61 61 60 60 60 61 61 59 57 57 57 57
57 58 59 60 60 59 58 55 56 54 54 55 56 53 52 53 53 51 51 51 51 51 50 52 53 54 58 59 59 58 59 57 59 59 59 59 59 58 58 57 57 56 57 57 56 54 56 53 53
58 53 56 58 59 57 58 53 56 56 55 54 52 50 51 53 52 50 51 51 49 50 51 51 53 54 56 56 57 57 58 58 57 57 57 56 56 54 53 53 53 54 53 53 53 53 55 51 52
51 50 45 55 58 56 56 47 55 55 53 51 50 48 50 51 51 50 51 51 49 49 49 50 54 53 54 55 56 57 57 56 57 57 56 55 54 53 52 51 51 50 50 51 50 49 48 47 47
46 41 45 52 56 54 52 49 52 54 54 50 49 48 49 49 48 48 50 49 48 48 49 50 51 51 52 54 55 55 55 54 54 54 52 52 53 52 51 50 49 49 48 48 49 48 46 44 44
43 42 48 47 54 51 48 49 52 54 54 51 49 48 48 48 48 49 49 49 49 48 50 52 51 51 52 53 53 52 51 50 51 51 48 50 50 49 49 48 46 46 45 45 47 46 44 42 41
48 45 45 49 54 51 49 49 53 54 51 50 48 49 49 49 47 48 49 48 48 49 50 51 51 51 52 52 50 48 47 47 46 46 45 46 47 47 46 45 45 44 43 41 43 43 42 42 40
50 46 46 50 53 50 49 48 53 52 53 55 54 52 51 45 45 46 46 46 47 48 52 52 52 54 54 54 51 49 47 45 43 44 44 44 44 44 45 43 42 41 42 40 39 39 38 38 39
48 46 44 48 48 47 44 42 48 54 54 55 57 56 53 47 45 44 45 44 45 47 52 53 53 53 52 51 49 47 45 42 42 40 41 41 43 42 41 41 40 40 40 38 36 36 37 35 36
44 51 51 49 43 37 44 36 44 49 51 51 56 51 51 46 46 46 45 43 43 45 50 52 51 50 50 50 47 45 43 40 37 38 38 39 40 40 40 40 39 38 38 36 36 37 34 34 32
47 50 48 45 41 36 38 35 42 49 50 55 54 54 50 48 47 45 45 45 43 43 42 47 48 45 46 47 46 43 40 40 39 38 37 37 38 38 38 38 37 36 36 35 34 33 33 33 32
51 47 45 42 39 29 39 38 38 48 52 57 52 49 47 46 46 46 44 43 41 40 40 41 43 44 44 44 43 42 40 38 37 36 36 36 36 36 36 36 35 35 34 34 33 32 31 31 31
48 42 31 28 26 30 39 36 46 49 53 54 52 46 46 46 44 43 41 41 39 39 39 40 41 41 42 43 41 41 40 40 39 37 36 35 35 33 34 34 33 33 33 33 32 30 30 30 29
42 43 32 26 25 28 34 31 42 51 53 48 52 51 47 45 45 43 41 41 40 40 38 40 41 40 40 41 40 41 40 40 40 38 37 35 34 33 33 33 33 33 33 32 31 29 29 29 27
41 39 48 35 21 24 33 39 46 45 45 44 45 47 46 45 43 41 40 40 40 39 39 41 40 39 41 41 40 40 39 39 39 36 35 34 33 35 33 32 31 31 31 31 29 28 27 27 27
45 47 35 32 22 21 30 33 40 41 45 43 43 44 43 44 42 41 41 41 40 41 40 40 41 41 40 39 40 40 38 38 37 36 34 34 32 32 32 31 30 30 30 29 28 27 27 27 26
41 38 40 41 32 27 27 36 45 48 49 44 44 45 46 44 42 42 42 41 40 40 40 40 39 38 38 39 37 37 36 36 36 34 33 32 31 31 31 30 30 29 28 28 27 27 27 27 27
42 42 40 35 31 30 29 41 47 45 45 46 45 46 47 47 44 43 42 41 40 40 39 39 39 38 38 38 37 35 36 34 34 33 32 31 31 31 30 29 29 29 29 28 28 27 27 26 26
MSLP
1013.63 1013.05 1013.21 1013.67 1015.46 1016.61 1017.24 1017.10 1016.48 1016.55 1016.42 1016.36 1016.42 1016.86 1018.48 1018.88 1019.34 1020.59 1020.12 1019.64 1019.80 1020.24 1020.63 1020.92 1021.20 1021.44 1021.64 1021.83 1021.95 1022.13 1022.24 1022.31 1022.51 1022.67 1022.64 1022.82 1022.91 1023.10 1023.20 1023.25 1023.19 1023.26 1023.25 1023.44 1023.33 1023.28 1023.17 1023.02 1022.87
1013.69 1013.23 1013.52 1014.59 1016.17 1017.46 1017.83 1017.16 1016.96 1016.49 1016.23 1016.65 1016.98 1017.69 1018.40 1019.80 1019.56 1019.91 1019.88 1019.42 1019.86 1020.09 1020.53 1020.91 1021.17 1021.40 1021.69 1021.97 1022.23 1022.32 1022.47 1022.63 1022.75 1022.81 1022.87 1023.09 1023.20 1023.36 1023.60 1023.63 1023.65 1023.74 1023.68 1023.68 1023.72 1023.74 1023.67 1023.54 1023.41
1013.64 1013.65 1014.84 1015.52 1016.70 1017.38 1017.36 1017.03 1016.66 1016.41 1016.25 1016.43 1017.11 1017.95 1019.02 1020.18 1020.03 1020.01 1019.63 1019.28 1019.95 1020.05 1020.43 1020.79 1021.11 1021.41 1021.69 1021.96 1022.25 1022.33 1022.54 1022.69 1022.76 1022.85 1022.99 1023.26 1023.46 1023.68 1023.88 1024.01 1024.12 1024.11 1024.14 1024.11 1024.07 1023.95 1023.82 1023.84 1023.79
1013.76 1014.24 1015.30 1015.98 1016.75 1016.53 1016.57 1016.69 1016.22 1016.37 1016.29 1016.52 1017.37 1019.12 1019.83 1020.24 1020.00 1019.90 1019.52 1019.44 1019.87 1020.09 1020.37 1020.83 1021.09 1021.30 1021.53 1021.84 1022.26 1022.48 1022.65 1022.81 1022.98 1023.02 1023.19 1023.41 1023.65 1023.90 1024.02 1024.18 1024.28 1024.36 1024.40 1024.34 1024.37 1024.40 1024.41 1024.37 1024.23
1014.25 1015.21 1016.04 1016.54 1016.48 1016.41 1016.16 1015.84 1016.02 1016.37 1016.52 1016.96 1017.40 1019.52 1020.32 1020.57 1020.31 1020.24 1020.17 1019.78 1020.21 1020.35 1020.51 1020.81 1021.12 1021.38 1021.55 1021.97 1022.25 1022.58 1022.84 1022.98 1023.13 1023.30 1023.45 1023.69 1023.91 1024.16 1024.28 1024.44 1024.57 1024.76 1024.80 1024.84 1025.00 1024.99 1024.94 1024.89 1024.66
1015.08 1015.74 1016.73 1016.82 1016.31 1015.99 1015.79 1015.37 1015.70 1016.12 1016.59 1017.27 1018.36 1019.56 1020.86 1020.96 1020.70 1020.87 1020.70 1020.87 1020.72 1020.72 1020.81 1021.01 1021.39 1021.65 1021.88 1022.01 1022.28 1022.50 1022.74 1022.97 1023.25 1023.45 1023.61 1023.81 1024.08 1024.31 1024.53 1024.63 1024.84 1025.00 1025.08 1025.24 1025.46 1025.43 1025.41 1025.31 1025.23
1015.58 1016.57 1016.97 1016.78 1016.58 1016.07 1015.74 1015.40 1015.91 1016.33 1016.87 1017.45 1018.02 1019.96 1021.15 1021.10 1021.11 1021.06 1021.19 1021.21 1021.25 1021.42 1021.41 1021.42 1021.61 1021.84 1022.03 1022.21 1022.36 1022.53 1022.75 1023.00 1023.24 1023.43 1023.66 1023.93 1024.21 1024.44 1024.62 1024.84 1025.06 1025.34 1025.42 1025.59 1025.71 1025.69 1025.64 1025.61 1025.59
1015.62 1016.66 1016.85 1016.47 1016.66 1016.21 1015.74 1015.73 1016.08 1016.46 1017.22 1017.48 1018.29 1019.98 1021.21 1021.05 1021.05 1021.36 1021.58 1021.82 1021.98 1021.96 1022.09 1022.01 1021.98 1021.90 1022.05 1022.26 1022.43 1022.51 1022.70 1022.91 1023.13 1023.39 1023.60 1023.95 1024.23 1024.50 1024.71 1024.94 1024.98 1025.16 1025.37 1025.49 1025.65 1025.67 1025.68 1025.68 1025.68
1015.52 1016.70 1017.05 1016.57 1016.31 1016.10 1015.83 1015.96 1016.13 1016.57 1017.47 1018.67 1019.60 1020.17 1020.65 1020.83 1021.09 1021.73 1022.27 1022.57 1022.67 1022.80 1022.76 1022.63 1022.57 1022.39 1022.13 1022.24 1022.46 1022.52 1022.56 1022.77 1023.01 1023.35 1023.65 1024.00 1024.25 1024.43 1024.68 1024.77 1024.98 1025.18 1025.14 1025.32 1025.56 1025.74 1025.84 1025.99 1026.03
1016.13 1017.13 1016.80 1016.50 1016.13 1015.93 1016.00 1016.16 1016.43 1017.19 1018.22 1019.58 1020.50 1020.76 1020.92 1021.16 1021.57 1022.25 1022.81 1023.18 1023.15 1023.27 1023.19 1023.03 1022.89 1022.67 1022.42 1022.20 1022.17 1022.20 1022.38 1022.61 1022.83 1023.11 1023.49 1023.76 1024.07 1024.33 1024.59 1024.83 1024.85 1025.09 1025.20 1025.04 1025.35 1025.59 1025.73 1025.96 1026.11
1016.13 1016.52 1016.38 1016.38 1016.23 1015.98 1016.09 1016.44 1016.62 1017.46 1018.89 1019.44 1020.26 1021.08 1021.41 1021.81 1022.28 1022.66 1023.15 1023.25 1023.28 1023.36 1023.42 1023.44 1023.26 1022.99 1022.66 1022.47 1022.11 1022.36 1022.62 1022.95 1023.06 1023.02 1023.23 1023.57 1024.01 1024.52 1024.84 1025.16 1025.33 1025.37 1025.62 1025.67 1025.75 1025.82 1026.02 1026.14 1026.32
1016.31 1016.26 1016.32 1016.30 1016.23 1016.29 1016.48 1016.66 1017.11 1017.86 1019.17 1019.58 1020.06 1020.89 1021.61 1022.22 1022.66 1022.92 1023.22 1023.41 1023.57 1023.77 1023.76 1023.56 1023.31 1023.11 1022.80 1022.66 1022.50 1022.86 1023.09 1023.35 1023.62 1023.69 1023.65 1023.83 1024.38 1024.81 1025.05 1025.25 1025.33 1025.48 1025.54 1025.80 1026.01 1026.20 1026.21 1026.35 1026.35
1016.35 1016.39 1016.37 1016.52 1016.53 1016.67 1016.78 1017.14 1017.66 1018.89 1019.71 1020.09 1020.63 1021.32 1022.04 1022.44 1022.85 1023.13 1023.31 1023.53 1023.72 1023.97 1023.97 1023.75 1023.37 1023.17 1022.80 1022.61 1022.90 1023.22 1023.66 1023.83 1024.09 1024.08 1024.28 1024.21 1024.65 1024.95 1025.25 1025.61 1025.71 1025.86 1025.94 1025.96 1026.17 1026.44 1026.59 1026.65 1026.68
1016.63 1016.66 1016.64 1016.68 1016.83 1016.92 1017.24 1017.62 1018.09 1019.13 1019.83 1020.50 1021.03 1021.75 1022.23 1022.46 1022.84 1023.24 1023.47 1023.61 1023.82 1024.01 1023.99 1023.85 1023.67 1023.56 1023.16 1023.34 1023.59 1023.94 1024.22 1024.57 1024.36 1024.67 1024.89 1024.98 1025.25 1025.61 1025.87 1026.17 1026.38 1026.30 1026.48 1026.54 1026.64 1026.86 1026.95 1027.16 1027.24
1016.84 1017.16 1017.03 1016.88 1016.96 1017.28 1017.53 1018.23 1018.12 1018.71 1019.87 1020.67 1021.33 1021.84 1022.33 1022.57 1022.87 1023.16 1023.38 1023.63 1023.89 1024.01 1023.95 1023.88 1023.85 1023.87 1023.67 1023.87 1024.18 1024.51 1024.85 1025.06 1025.24 1025.59 1025.74 1025.78 1025.81 1026.07 1026.47 1026.73 1026.93 1026.98 1027.11 1027.17 1027.29 1027.26 1027.20 1027.61 1027.57
1017.35 1017.63 1017.70 1016.82 1017.03 1017.49 1017.84 1018.00 1018.05 1018.79 1019.66 1020.71 1021.34 1021.84 1022.27 1022.64 1022.92 1023.16 1023.34 1023.61 1023.81 1023.95 1024.04 1024.02 1023.91 1024.16 1024.09 1024.24 1024.47 1024.79 1025.17 1025.64 1025.94 1026.28 1026.32 1026.56 1026.64 1026.60 1026.88 1027.20 1027.44 1027.69 1027.63 1027.64 1027.74 1027.90 1028.21 1028.45 1028.30
1018.14 1018.21 1017.93 1017.26 1017.22 1017.62 1018.19 1018.23 1018.36 1019.04 1019.73 1020.52 1020.99 1021.62 1022.06 1022.57 1023.01 1023.19 1023.32 1023.54 1023.78 1023.89 1024.06 1024.29 1024.39 1024.51 1024.58 1024.65 1024.89 1025.29 1025.68 1026.11 1026.52 1026.84 1026.96 1027.06 1027.07 1027.40 1027.53 1027.94 1028.18 1028.21 1028.30 1028.53 1028.47 1028.71 1028.72 1028.87 1028.75
1018.39 1018.34 1017.86 1017.59 1017.45 1017.61 1018.33 1018.33 1018.44 1018.93 1019.48 1019.93 1020.36 1020.99 1021.59 1022.09 1022.60 1023.00 1023.14 1023.35 1023.54 1023.76 1024.03 1024.35 1024.60 1024.70 1024.82 1024.97 1025.43 1025.91 1026.27 1026.79 1027.07 1027.25 1027.69 1027.70 1027.81 1027.95 1028.18 1028.57 1028.84 1028.87 1029.15 1029.43 1029.27 1029.42 1029.38 1029.51 1029.36
1017.93 1018.06 1017.94 1017.43 1017.15 1017.66 1018.06 1018.11 1017.99 1018.27 1018.99 1019.35 1019.85 1020.06 1020.57 1021.11 1021.91 1022.57 1022.89 1023.19 1023.46 1023.65 1023.85 1024.26 1024.57 1024.81 1024.83 1025.08 1025.54 1026.07 1026.78 1027.38 1027.83 1028.11 1028.31 1028.32 1028.38 1028.61 1028.75 1029.06 1029.20 1029.18 1029.60 1030.14 1030.13 1030.19 1030.37 1030.28 1030.05
1017.98 1018.08 1017.80 1017.46 1017.30 1017.90 1017.89 1017.86 1017.50 1017.59 1017.60 1017.65 1018.11 1018.87 1019.56 1020.83 1021.73 1022.18 1022.70 1022.99 1023.28 1023.33 1023.47 1023.90 1024.38 1024.62 1024.77 1025.00 1025.63 1026.30 1027.26 1028.11 1028.28 1028.65 1028.89 1029.05 1028.95 1029.13 1029.39 1029.69 1029.93 1030.14 1030.22 1030.54 1030.89 1030.68 1031.04 1031.36 1031.13
1017.82 1017.80 1017.84 1017.96 1017.94 1018.13 1018.13 1017.66 1017.26 1016.47 1016.20 1016.21 1016.71 1017.12 1018.28 1019.18 1020.53 1021.77 1022.45 1022.87 1023.08 1023.08 1023.12 1023.37 1023.89 1024.31 1024.70 1025.06 1025.76 1026.77 1027.77 1028.52 1028.83 1029.38 1029.57 1029.79 1029.57 1029.82 1030.04 1030.31 1030.48 1030.80 1030.67 1031.06 1031.37 1031.62 1031.42 1032.04 1032.11
1017.65 1017.31 1017.63 1018.12 1018.82 1018.90 1018.54 1017.26 1016.49 1015.92 1015.71 1015.65 1015.29 1016.21 1017.12 1018.68 1020.06 1020.96 1021.86 1022.54 1022.89 1023.05 1022.97 1023.29 1023.77 1024.27 1024.82 1025.17 1025.80 1026.38 1027.25 1028.22 1029.25 1029.56 1029.92 1030.13 1030.12 1030.28 1030.54 1030.69 1030.87 1031.18 1031.38 1031.57 1031.76 1032.04 1032.20 1032.08 1032.77
1017.33 1017.34 1017.87 1018.45 1019.13 1019.47 1019.23 1018.70 1015.42 1015.19 1014.92 1014.41 1013.95 1014.94 1016.25 1017.53 1018.72 1020.00 1021.07 1022.05 1022.70 1023.32 1023.40 1023.48 1023.88 1024.35 1024.93 1025.41 1025.91 1026.58 1027.56 1028.36 1029.10 1029.70 1030.04 1030.34 1030.63 1030.82 1031.04 1031.25 1031.37 1031.72 1031.85 1032.13 1032.20 1032.61 1032.85 1033.00 1033.40
1017.42 1018.04 1018.85 1019.52 1020.20 1020.06 1019.17 1018.60 1015.19 1014.63 1013.36 1012.78 1013.19 1014.20 1015.66 1017.10 1018.43 1019.59 1020.71 1021.69 1022.68 1023.38 1023.63 1023.73 1023.99 1024.45 1024.88 1025.45 1026.08 1026.57 1027.23 1028.14 1028.96 1029.67 1030.04 1030.51 1030.93 1031.25 1031.47 1031.59 1031.73 1032.13 1032.41 1032.58 1032.87 1033.10 1033.48 1033.69 1033.92
1017.51 1018.77 1020.16 1020.97 1021.31 1019.45 1018.29 1017.77 1014.13 1013.24 1012.48 1012.46 1012.87 1013.86 1015.15 1016.46 1017.90 1019.21 1020.33 1021.35 1022.26 1023.05 1023.59 1023.91 1024.09 1024.56 1024.91 1025.46 1026.14 1026.78 1027.34 1027.90 1028.50 1029.19 1029.73 1030.34 1031.00 1031.49 1031.70 1031.57 1032.13 1032.45 1032.71 1032.98 1033.18 1033.35 1033.73 1034.30 1034.55
1017.37 1017.98 1019.11 1020.05 1020.84 1019.96 1018.86 1016.52 1013.24 1012.03 1011.71 1012.14 1012.46 1013.25 1014.89 1016.40 1017.53 1018.60 1019.62 1020.75 1021.79 1022.69 1023.31 1023.66 1023.97 1024.49 1024.92 1025.46 1026.15 1026.77 1027.32 1027.92 1028.48 1028.95 1029.42 1030.04 1030.57 1031.15 1031.63 1032.12 1032.36 1032.55 1032.81 1032.91 1033.29 1033.73 1034.09 1034.61 1034.92
1017.39 1017.58 1017.60 1019.32 1020.82 1020.33 1017.63 1014.88 1012.91 1012.31 1012.28 1012.53 1012.82 1013.61 1014.62 1015.82 1017.14 1018.34 1019.51 1020.39 1021.38 1022.27 1022.87 1023.25 1023.73 1024.38 1024.84 1025.38 1026.09 1026.79 1027.37 1027.90 1028.42 1028.92 1029.46 1030.06 1030.75 1031.22 1031.77 1032.22 1032.43 1032.54 1032.84 1033.02 1033.35 1033.86 1034.41 1034.75 1034.90
1015.77 1016.55 1018.04 1019.35 1020.41 1019.31 1016.51 1014.52 1012.45 1012.28 1012.30 1012.58 1013.26 1014.02 1015.07 1016.08 1017.02 1018.11 1018.96 1020.03 1021.08 1021.94 1022.66 1023.17 1023.52 1023.98 1024.59 1025.25 1025.83 1026.38 1026.90 1027.45 1028.05 1028.81 1029.71 1030.39 1030.98 1031.25 1031.74 1032.09 1032.27 1032.58 1032.88 1033.08 1033.27 1033.95 1034.50 1034.67 1034.98
1015.88 1016.17 1016.82 1017.61 1018.40 1017.69 1015.75 1011.94 1010.59 1010.74 1011.03 1011.77 1012.57 1013.21 1014.05 1015.26 1016.47 1017.54 1018.51 1019.54 1020.69 1021.68 1022.32 1022.88 1023.42 1023.97 1024.66 1025.23 1025.83 1026.46 1027.06 1027.57 1028.14 1028.83 1029.67 1030.37 1030.93 1031.46 1031.90 1032.07 1032.37 1032.61 1032.84 1033.22 1033.44 1033.92 1034.52 1034.66 1034.88
1014.14 1014.32 1015.05 1015.95 1016.49 1016.13 1014.94 1008.25 1009.71 1009.86 1010.48 1011.22 1011.92 1012.73 1013.64 1014.59 1015.82 1017.00 1018.02 1019.08 1020.18 1021.03 1021.88 1022.47 1023.10 1023.68 1024.33 1025.01 1025.74 1026.50 1027.09 1027.64 1028.20 1028.73 1029.34 1029.90 1030.62 1031.46 1031.97 1032.12 1032.23 1032.46 1032.69 1033.08 1033.42 1033.85 1034.37 1034.67 1034.77
Wind_Speed
8 8 0 5 7 7 2 3 4 3 4 3 5 16 11 4 4 6 6 6 11 11 9 8 12 12 11 10 10 10 11 11 13 12 12 14 16 16 16 16 16 16 15 16 16 16 16 15 15
5 5 5 3 7 5 3 4 8 3 6 10 10 6 9 5 5 4 3 1 13 12 9 9 11 12 11 11 10 10 10 10 12 11 13 13 16 16 16 16 16 15 15 16 15 15 15 15 14
3 1 5 5 3 4 5 3 7 3 3 2 5 7 5 2 3 3 4 3 11 12 10 10 13 13 14 14 8 10 9 9 11 11 12 13 15 15 16 16 16 16 16 15 15 16 16 15 14
3 6 5 6 4 7 8 7 8 6 4 6 6 8 5 4 2 5 4 8 9 8 12 11 11 13 13 14 11 8 8 9 9 9 10 12 14 14 15 15 16 16 16 16 16 16 15 15 15
4 4 5 5 4 4 3 7 8 5 4 4 4 5 5 4 7 7 9 5 9 7 9 7 10 10 14 14 13 11 9 8 8 7 9 11 13 14 15 15 15 15 15 15 15 14 14 14 15
5 4 5 1 4 5 3 3 4 5 4 4 8 6 3 1 7 5 9 10 9 6 6 7 8 9 8 7 10 10 10 9 8 7 8 10 13 13 14 14 14 13 14 14 14 14 14 15 15
4 4 3 4 5 3 4 2 4 7 3 3 6 5 3 2 2 7 8 8 9 8 9 5 5 5 5 6 5 8 9 9 8 7 8 10 11 12 12 11 13 12 14 15 14 14 14 14 13
5 5 4 0 6 3 6 3 5 8 1 2 3 6 5 4 4 8 8 8 8 8 8 7 6 4 4 2 5 7 9 9 8 8 10 10 11 11 10 9 10 12 12 14 13 12 11 12 13
4 5 2 5 5 5 5 4 3 2 7 5 5 4 5 7 6 7 6 6 6 6 7 6 7 6 5 4 5 6 8 10 9 7 8 8 5 6 7 7 9 10 13 13 12 11 9 8 9
5 4 1 2 4 5 6 5 6 5 4 4 5 4 5 6 5 8 7 5 5 4 4 5 4 4 4 1 4 4 5 4 4 5 6 4 5 6 6 6 9 9 8 13 12 11 10 7 4
2 3 2 3 2 3 5 4 2 7 2 5 8 9 6 8 8 9 6 5 4 3 5 6 6 5 3 3 0 3 4 4 4 5 6 5 6 5 4 3 3 3 4 3 5 5 3 5 4
3 1 3 2 3 3 2 2 2 3 4 3 11 9 7 9 7 7 6 5 4 6 4 5 6 5 4 0 2 4 5 4 5 6 6 5 4 4 4 3 4 3 2 4 5 3 4 5 5
1 1 2 4 2 2 2 2 2 4 7 8 10 9 9 8 7 6 7 6 5 5 3 4 5 5 3 5 5 6 5 5 5 6 6 5 6 5 5 4 4 4 4 4 4 4 4 5 5
1 3 3 4 4 2 3 2 1 3 8 9 9 9 8 9 8 6 6 5 6 5 3 3 6 5 6 7 8 6 5 5 6 6 6 7 5 5 5 5 4 5 4 3 4 4 4 4 4
1 3 5 5 6 2 4 5 10 8 9 10 9 8 7 7 8 7 6 5 6 4 4 5 6 5 8 9 8 6 7 7 7 6 7 7 6 7 6 5 5 5 4 6 5 5 6 5 4
1 2 2 3 8 4 5 8 4 11 12 10 10 8 8 7 7 6 6 6 6 6 6 5 5 6 8 8 7 7 8 7 6 6 6 8 8 7 6 5 6 5 5 4 4 5 5 4 5
3 4 6 5 4 5 4 7 2 6 7 9 9 9 8 7 6 6 6 7 7 7 7 6 6 8 9 9 9 9 10 8 7 7 7 8 9 9 8 7 6 6 5 6 5 6 4 4 4
6 4 5 6 7 3 5 10 4 9 9 11 10 10 10 10 9 8 8 7 7 7 7 8 6 8 8 8 8 8 8 8 7 7 7 8 8 10 9 8 8 7 7 7 7 7 6 4 3
3 3 4 5 4 5 9 9 10 11 7 9 10 11 13 13 9 8 7 8 8 7 9 9 9 8 7 7 6 6 6 7 7 7 8 9 8 9 9 7 8 7 8 6 6 3 7 10 6
7 7 9 5 4 5 6 11 9 7 13 15 18 16 15 8 9 8 8 7 8 8 10 10 10 10 5 5 6 5 5 6 7 6 8 8 8 8 9 8 7 6 8 9 7 6 3 5 8
6 6 5 8 1 3 4 7 8 9 11 10 15 13 11 18 16 11 9 8 8 9 11 13 11 8 8 11 10 9 8 5 6 5 6 6 8 8 8 8 7 7 7 7 6 5 6 4 5
7 6 6 6 1 6 4 10 7 6 10 9 20 14 17 16 11 13 13 9 9 7 7 10 10 10 10 12 11 13 8 9 3 5 5 6 7 8 8 8 8 8 6 7 6 5 5 4 4
8 2 3 3 4 1 4 6 7 8 12 17 17 16 15 18 18 17 16 12 7 7 7 7 9 8 9 9 9 9 10 9 7 6 9 8 7 7 7 7 7 7 6 7 8 7 7 5 4
7 5 6 5 3 4 11 10 6 10 13 13 8 11 16 17 15 14 12 11 8 6 7 7 9 7 8 9 9 13 16 13 10 8 8 6 5 5 6 7 7 6 6 7 6 6 7 6 6
5 7 2 4 1 10 6 9 16 8 8 9 11 12 15 17 16 16 17 15 12 10 8 7 8 8 9 12 11 11 13 12 13 11 9 10 6 4 5 6 6 5 5 6 6 6 6 5 5
8 10 8 9 6 6 1 10 9 12 10 6 8 15 15 16 15 17 17 15 13 12 10 9 10 8 9 11 11 10 10 8 8 8 8 6 6 6 6 6 6 6 6 6 6 5 5 5 5
6 9 4 2 2 2 7 8 8 6 8 3 6 13 17 18 17 17 14 14 14 12 13 13 11 9 10 11 9 9 8 9 9 9 7 6 6 6 7 7 7 6 6 6 6 5 5 5 3
8 6 3 1 3 8 6 8 11 5 14 7 8 9 9 12 14 15 15 14 12 12 9 10 10 12 11 10 10 10 10 9 9 9 9 8 6 6 7 7 6 6 6 6 7 5 4 5 2
6 5 4 5 6 6 6 10 7 11 12 13 13 15 16 16 15 15 13 13 12 11 11 12 11 11 11 10 7 10 9 9 9 9 8 8 7 7 7 6 7 7 6 6 6 6 5 5 3
2 7 7 8 8 6 2 22 6 3 3 8 11 14 13 15 15 14 13 14 14 14 12 13 12 12 11 10 9 9 9 9 9 9 9 8 8 6 7 6 6 6 6 6 6 5 4 4 2
Wind_Direction
320 306 207 41 57 69 58 36 103 76 54 15 56 88 103 63 74 151 238 81 125 130 129 127 128 118 107 101 95 96 95 92 86 89 91 98 91 82 76 66 60 64 61 56 54 50 46 44 44
323 322 39 79 83 72 275 111 81 93 155 116 104 101 57 70 36 94 55 334 150 136 138 140 135 127 119 109 106 100 100 101 99 93 95 102 93 86 79 72 67 64 60 56 53 51 52 50 46
288 157 76 90 92 147 134 150 129 123 113 171 110 59 73 359 21 96 215 151 138 138 145 152 152 149 143 127 121 113 109 110 108 106 108 106 101 94 86 79 76 69 64 58 53 49 48 49 47
13 10 26 78 81 352 127 174 136 128 12 67 120 71 58 300 96 147 28 122 114 139 142 151 162 150 146 131 130 127 123 117 111 104 106 112 112 110 100 91 85 78 69 60 54 49 47 44 41
33 60 48 108 74 84 86 150 135 150 146 95 107 130 94 28 64 35 41 71 89 100 118 129 134 155 144 142 145 147 142 133 123 118 114 117 120 110 100 95 89 82 74 67 60 57 52 48 44
21 85 49 57 135 116 57 89 111 106 136 96 74 96 125 3 57 43 59 50 52 75 110 114 88 86 80 131 150 152 152 143 136 133 126 123 123 112 108 103 103 100 91 77 67 61 55 46 40
98 71 213 102 155 115 147 97 88 133 104 62 135 85 156 67 56 87 80 63 54 53 51 64 120 115 108 107 122 158 156 150 148 141 129 123 122 120 119 122 118 106 95 84 73 69 64 58 50
96 93 328 21 187 180 173 93 116 100 98 99 68 154 185 198 171 106 86 75 62 48 45 27 32 73 124 178 142 148 157 153 150 140 134 130 131 130 132 132 129 120 103 93 83 78 72 66 56
53 59 346 321 142 174 182 121 35 113 96 60 21 93 153 164 148 108 88 65 53 49 46 36 22 17 6 110 155 149 161 159 151 136 134 137 140 134 145 138 127 122 115 99 84 69 67 55 37
82 90 307 336 334 155 164 121 151 104 127 76 67 71 96 83 112 100 99 88 79 74 60 53 27 6 347 290 147 157 175 162 160 157 158 165 156 144 124 113 109 106 115 111 93 75 77 78 62
6 150 303 354 39 42 138 105 200 131 184 199 174 159 123 93 89 102 101 98 94 100 58 31 16 343 312 305 354 58 55 83 71 73 140 123 119 121 110 93 82 101 107 80 75 82 64 66 61
53 89 87 331 34 48 87 98 126 95 145 97 124 140 119 114 113 120 113 100 83 69 44 16 5 349 303 168 81 85 83 69 54 43 50 95 94 99 102 114 100 86 75 92 84 67 71 57 50
119 239 85 117 77 62 48 118 180 138 152 119 114 107 127 130 131 114 119 105 104 89 60 14 19 15 37 85 89 82 83 80 83 65 49 82 92 96 86 65 68 65 56 65 67 55 45 45 28
205 341 282 185 189 198 160 250 140 166 154 137 130 136 141 138 150 120 118 126 108 109 81 50 46 34 59 67 74 77 78 70 69 57 46 52 70 82 85 77 60 67 51 55 65 65 52 46 28
79 336 305 233 195 216 145 290 230 167 161 153 155 154 145 152 131 151 148 143 135 124 112 86 84 60 75 80 78 76 68 65 74 69 59 55 67 79 79 77 67 63 54 57 49 48 47 39 30
167 70 328 259 156 197 125 262 285 167 151 172 170 169 163 171 156 155 151 136 141 129 117 96 96 87 80 87 90 88 84 79 68 69 71 62 68 70 73 72 64 43 47 53 59 50 45 26 20
324 220 212 299 173 128 161 263 187 159 172 182 188 185 178 176 159 162 156 141 146 146 130 104 95 95 96 93 89 83 78 71 66 58 55 51 63 58 67 62 54 47 50 39 55 48 48 21 8
210 218 250 224 220 146 183 259 226 207 191 201 197 190 186 183 186 170 159 146 143 140 121 117 115 115 110 101 94 81 75 69 63 65 57 55 59 61 72 66 56 47 49 40 45 55 28 21 3
224 214 243 261 230 143 216 250 239 217 218 214 212 200 196 188 165 162 163 152 143 144 136 140 136 138 134 124 113 96 100 91 76 65 56 62 67 67 77 76 73 67 69 59 43 51 41 23 4
247 260 268 284 205 163 258 248 253 198 221 210 207 209 197 155 164 162 163 165 166 159 152 149 151 155 156 121 112 112 109 88 93 85 69 60 68 70 79 84 72 60 74 59 48 40 54 44 21
226 203 232 225 244 267 286 270 248 242 224 214 227 216 191 175 166 164 170 176 174 167 160 157 161 143 124 119 113 108 100 85 88 67 74 57 74 73 78 76 79 72 76 74 63 53 59 83 18
238 210 217 241 148 244 150 284 251 242 243 214 229 198 189 173 163 164 171 174 176 182 144 135 135 135 136 137 134 138 134 130 113 118 108 87 71 77 78 82 82 78 73 74 72 53 59 77 57
227 157 189 212 195 337 282 290 262 216 248 248 239 211 187 175 167 170 172 166 163 158 148 138 138 136 141 138 139 129 119 119 126 119 109 95 82 78 82 83 83 82 82 75 75 63 61 60 83
153 77 40 39 69 260 223 216 196 236 231 257 237 194 171 169 168 161 151 141 149 155 149 145 139 148 145 137 136 140 141 142 138 136 123 117 105 95 86 88 83 82 81 81 83 80 71 69 74
119 101 311 322 310 243 217 233 246 248 247 227 224 186 172 165 160 158 157 162 160 164 164 156 151 146 142 143 141 146 147 146 144 143 139 134 127 120 116 103 100 98 102 98 93 88 82 72 79
190 161 166 218 215 260 54 240 251 225 250 280 235 184 163 165 167 166 164 163 163 167 169 162 159 149 144 143 149 148 145 146 143 145 143 136 136 135 127 114 117 113 111 105 98 92 95 93 81
202 209 183 16 56 350 223 277 300 244 273 292 185 167 177 170 168 166 163 165 167 172 175 168 158 152 153 150 145 144 139 144 148 141 132 135 126 131 128 133 127 117 111 112 109 95 95 95 88
153 164 86 52 218 252 260 252 235 213 239 217 211 183 177 172 165 169 170 170 172 175 168 164 162 160 153 145 149 150 149 145 140 133 137 141 140 132 139 140 133 125 121 118 112 108 107 105 80
156 185 189 144 165 210 277 255 204 216 220 206 206 193 182 179 174 174 174 169 166 167 173 169 162 154 154 153 144 145 148 141 135 138 144 149 137 144 150 147 144 142 127 120 113 118 126 112 122
216 179 164 172 217 237 200 259 177 130 264 193 203 196 188 181 175 175 169 164 170 177 173 173 168 163 164 158 150 149 145 144 147 153 154 148 147 152 158 157 146 137 132 125 131 144 138 148 152